TimeICT,TemperatureF,Dew PointF,Humidity,Sea Level PressureIn,VisibilityMPH,Wind Direction,Wind SpeedMPH,Gust SpeedMPH,PrecipitationIn,Events,Conditions,WindDirDegrees,DateUTC
12:00 AM,80.6,73.4,79,29.80,6.2,Calm,Calm,-,N/A,,Scattered Clouds,0,2012-10-25 17:00:00
12:30 AM,80.6,73.4,79,29.80,6.2,East,5.8,-,N/A,,Scattered Clouds,100,2012-10-25 17:30:00
1:00 AM,81,75,78,29.74,6,Calm,Calm,,,,Scattered Clouds,,2012-10-25 18:00:00
1:00 AM,80.6,73.4,79,29.77,6.2,Calm,Calm,-,N/A,,Scattered Clouds,0,2012-10-25 18:00:00
1:30 AM,80.6,73.4,79,29.77,6.2,Calm,Calm,-,N/A,,Scattered Clouds,0,2012-10-25 18:30:00
2:00 AM,78.8,73.4,83,29.77,6.2,Calm,Calm,-,N/A,,Scattered Clouds,0,2012-10-25 19:00:00
2:30 AM,78.8,73.4,83,29.77,6.2,Calm,Calm,-,N/A,,Mostly Cloudy,0,2012-10-25 19:30:00
3:00 AM,78.8,73.4,83,29.74,6.2,Calm,Calm,-,N/A,,Mostly Cloudy,0,2012-10-25 20:00:00
3:30 AM,78.8,73.4,83,29.74,6.2,Calm,Calm,-,N/A,,Mostly Cloudy,0,2012-10-25 20:30:00
4:00 AM,78.8,73.4,83,29.74,6.2,Calm,Calm,-,N/A,,Mostly Cloudy,0,2012-10-25 21:00:00
4:30 AM,78.8,73.4,83,29.74,6.2,Calm,Calm,-,N/A,,Mostly Cloudy,0,2012-10-25 21:30:00
6:00 AM,77.0,73.4,89,29.77,6.2,Calm,Calm,-,N/A,,Mostly Cloudy,0,2012-10-25 23:00:00
6:30 AM,77.0,73.4,89,29.77,6.2,Calm,Calm,-,N/A,,Mostly Cloudy,0,2012-10-25 23:30:00
7:00 AM,79,75,83,29.74,6,Calm,Calm,,,,Scattered Clouds,,2012-10-26 00:00:00
7:00 AM,78.8,75.2,89,29.80,6.2,Calm,Calm,-,N/A,,Mostly Cloudy,0,2012-10-26 00:00:00
7:30 AM,80.6,75.2,84,29.80,6.2,Calm,Calm,-,N/A,,Mostly Cloudy,0,2012-10-26 00:30:00
8:00 AM,82.4,75.2,79,29.80,6.2,East,6.9,-,N/A,,Mostly Cloudy,90,2012-10-26 01:00:00
8:30 AM,84.2,73.4,70,29.83,6.2,East,9.2,-,N/A,,Mostly Cloudy,90,2012-10-26 01:30:00
9:00 AM,84.2,73.4,70,29.80,6.2,East,12.7,-,N/A,,Mostly Cloudy,90,2012-10-26 02:00:00
9:30 AM,86.0,73.4,66,29.80,6.2,East,13.8,-,N/A,,Mostly Cloudy,80,2012-10-26 02:30:00
10:00 AM,86.0,71.6,62,29.80,6.2,East,12.7,-,N/A,,Scattered Clouds,100,2012-10-26 03:00:00
10:30 AM,86.0,73.4,66,29.80,6.2,East,10.4,-,N/A,,Scattered Clouds,80,2012-10-26 03:30:00
11:00 AM,86.0,71.6,62,29.80,6.2,East,10.4,-,N/A,,Scattered Clouds,100,2012-10-26 04:00:00
11:30 AM,86.0,71.6,62,29.77,6.2,ESE,9.2,-,N/A,,Mostly Cloudy,120,2012-10-26 04:30:00
12:00 PM,87.8,71.6,58,29.77,6.2,SE,8.1,-,N/A,,Mostly Cloudy,130,2012-10-26 05:00:00
12:30 PM,87.8,71.6,58,29.74,6.2,ESE,10.4,-,N/A,,Scattered Clouds,120,2012-10-26 05:30:00
1:00 PM,90,72,47,29.75,6,ENE,6.9,,,,Scattered Clouds,70,2012-10-26 06:00:00
1:00 PM,86.0,71.6,62,29.74,6.2,ENE,6.9,-,N/A,,Scattered Clouds,70,2012-10-26 06:00:00
1:30 PM,87.8,73.4,62,29.71,6.2,ENE,10.4,-,N/A,,Mostly Cloudy,60,2012-10-26 06:30:00
2:00 PM,87.8,71.6,58,29.71,6.2,ESE,9.2,-,N/A,,Mostly Cloudy,110,2012-10-26 07:00:00
2:30 PM,87.8,73.4,62,29.71,6.2,Calm,Calm,-,N/A,,Scattered Clouds,0,2012-10-26 07:30:00
3:00 PM,87.8,71.6,58,29.68,6.2,Calm,Calm,-,N/A,,Scattered Clouds,0,2012-10-26 08:00:00
3:30 PM,89.6,73.4,59,29.71,6.2,Variable,3.5,-,N/A,,Scattered Clouds,0,2012-10-26 08:30:00
4:00 PM,87.8,73.4,62,29.71,6.2,Variable,3.5,-,N/A,,Scattered Clouds,0,2012-10-26 09:00:00
4:30 PM,87.8,73.4,62,29.68,6.2,SW,6.9,-,N/A,,Scattered Clouds,230,2012-10-26 09:30:00
5:00 PM,86.0,73.4,66,29.71,5.6,Variable,4.6,-,N/A,,Mostly Cloudy,0,2012-10-26 10:00:00
5:30 PM,84.2,73.4,70,29.71,5.0,Calm,Calm,-,N/A,,Mostly Cloudy,0,2012-10-26 10:30:00
6:00 PM,84.2,73.4,70,29.71,5.0,Calm,Calm,-,N/A,,Mostly Cloudy,0,2012-10-26 11:00:00
6:30 PM,82.4,73.4,74,29.71,5.6,WNW,5.8,-,N/A,,Scattered Clouds,300,2012-10-26 11:30:00
7:00 PM,80.6,73.4,79,29.74,5.6,Calm,Calm,-,N/A,,Scattered Clouds,0,2012-10-26 12:00:00
7:30 PM,80.6,75.2,84,29.74,5.6,WSW,3.5,-,N/A,,Scattered Clouds,240,2012-10-26 12:30:00
8:00 PM,80.6,75.2,84,29.77,5.6,Calm,Calm,-,N/A,,Scattered Clouds,0,2012-10-26 13:00:00
8:30 PM,82.4,75.2,79,29.80,5.0,NW,4.6,-,N/A,,Mostly Cloudy,310,2012-10-26 13:30:00
9:00 PM,77.0,73.4,89,29.77,5.0,East,9.2,20.7,N/A,,Mostly Cloudy,90,2012-10-26 14:00:00
9:30 PM,77.0,71.6,83,29.80,4.3,ESE,11.5,-,N/A,Thunderstorm,Thunderstorm,120,2012-10-26 14:30:00
10:00 PM,77.0,73.4,89,29.80,5.0,East,4.6,-,N/A,Thunderstorm,Thunderstorm,80,2012-10-26 15:00:00
10:30 PM,77.0,73.4,89,29.80,5.0,East,5.8,-,N/A,,Mostly Cloudy,80,2012-10-26 15:30:00
11:00 PM,77.0,73.4,89,29.80,5.0,Calm,Calm,-,N/A,,Mostly Cloudy,0,2012-10-26 16:00:00
11:30 PM,77.0,73.4,89,29.80,5.0,East,3.5,-,N/A,,Mostly Cloudy,80,2012-10-26 16:30:00